contact:dominique.lefevre@mio.osupytheas.fr, maurice.libes@osupytheas.fr, didier.mallarino@osupytheas.fr
Project:EMSO http://www.emso-fr.org/EMSO-France
Depth: 2436.0 m
Title:EMSO Ligure Ouest : Data MII capteur MICROCAT
DateTime_Computer,Latitude,Longitude,Temperature,Conductivity,Pressure,DateTime_Instrument
DateTime_Computer,Latitude,Longitude,degC,S m-1,dbar,DateTime_Instrument
2023-09-21T00:00:11Z,42.805,6.029,13.3038,4.60145,2470.763,2023-9-21T02:02:33Z
2023-09-21T00:03:14Z,42.805,6.029,13.3036,4.60142,2470.81,2023-9-21T02:05:36Z
2023-09-21T00:06:17Z,42.805,6.029,13.3038,4.60144,2470.763,2023-9-21T02:08:39Z
2023-09-21T00:09:20Z,42.805,6.029,13.3051,4.60122,2470.787,2023-9-21T02:11:42Z
2023-09-21T00:12:23Z,42.805,6.029,13.3043,4.60151,2470.8,2023-9-21T02:14:46Z
2023-09-21T00:15:26Z,42.805,6.029,13.3041,4.60126,2470.777,2023-9-21T02:17:49Z
2023-09-21T00:18:29Z,42.805,6.029,13.3056,4.60160,2470.777,2023-9-21T02:20:52Z
2023-09-21T00:21:32Z,42.805,6.029,13.3047,4.60160,2470.787,2023-9-21T02:23:55Z
2023-09-21T00:24:35Z,42.805,6.029,13.3049,4.60143,2470.763,2023-9-21T02:26:58Z
2023-09-21T00:27:38Z,42.805,6.029,13.3041,4.60140,2470.8,2023-9-21T02:30:01Z
2023-09-21T00:30:42Z,42.805,6.029,13.3049,4.60157,2470.8,2023-9-21T02:33:04Z
2023-09-21T00:33:45Z,42.805,6.029,13.3035,4.60150,2470.777,2023-9-21T02:36:07Z
2023-09-21T00:36:48Z,42.805,6.029,13.3039,4.60142,2470.777,2023-9-21T02:39:10Z
2023-09-21T00:39:51Z,42.805,6.029,13.3039,4.60149,2470.717,2023-9-21T02:42:13Z
2023-09-21T00:42:54Z,42.805,6.029,13.3054,4.60147,2470.74,2023-9-21T02:45:16Z
2023-09-21T00:45:57Z,42.805,6.029,13.3054,4.60166,2470.74,2023-9-21T02:48:19Z
2023-09-21T00:49:00Z,42.805,6.029,13.3061,4.60137,2470.74,2023-9-21T02:51:22Z
2023-09-21T00:52:03Z,42.805,6.029,13.3067,4.60157,2470.754,2023-9-21T02:54:26Z
2023-09-21T00:55:06Z,42.805,6.029,13.3046,4.60180,2470.763,2023-9-21T02:57:29Z
2023-09-21T00:58:09Z,42.805,6.029,13.3055,4.60183,2470.763,2023-9-21T03:00:32Z
2023-09-21T01:01:12Z,42.805,6.029,13.3042,4.60155,2470.754,2023-9-21T03:03:35Z
2023-09-21T01:04:15Z,42.805,6.029,13.3037,4.60135,2470.74,2023-9-21T03:06:38Z
2023-09-21T01:07:19Z,42.805,6.029,13.3044,4.60188,2470.74,2023-9-21T03:09:41Z
2023-09-21T01:10:22Z,42.805,6.029,13.3061,4.60133,2470.717,2023-9-21T03:12:44Z
2023-09-21T01:13:25Z,42.805,6.029,13.3046,4.60135,2470.74,2023-9-21T03:15:47Z
2023-09-21T01:16:28Z,42.805,6.029,13.3054,4.60165,2470.717,2023-9-21T03:18:50Z
2023-09-21T01:19:31Z,42.805,6.029,13.3048,4.60145,2470.717,2023-9-21T03:21:53Z
2023-09-21T01:22:34Z,42.805,6.029,13.3031,4.60147,2470.763,2023-9-21T03:24:56Z
2023-09-21T01:25:37Z,42.805,6.029,13.3034,4.60131,2470.763,2023-9-21T03:27:59Z
2023-09-21T01:28:40Z,42.805,6.029,13.3043,4.60161,2470.763,2023-9-21T03:31:03Z
2023-09-21T01:31:43Z,42.805,6.029,13.3056,4.60137,2470.74,2023-9-21T03:34:06Z
2023-09-21T01:34:46Z,42.805,6.029,13.3059,4.60141,2470.717,2023-9-21T03:37:09Z
2023-09-21T01:37:49Z,42.805,6.029,13.3075,4.60183,2470.74,2023-9-21T03:40:12Z
2023-09-21T01:40:52Z,42.805,6.029,13.3056,4.60165,2470.73,2023-9-21T03:43:15Z
2023-09-21T01:43:56Z,42.805,6.029,13.3072,4.60161,2470.717,2023-9-21T03:46:18Z
2023-09-21T01:46:59Z,42.805,6.029,13.3052,4.60150,2470.707,2023-9-21T03:49:21Z
2023-09-21T01:50:02Z,42.805,6.029,13.3061,4.60150,2470.717,2023-9-21T03:52:24Z
2023-09-21T01:53:05Z,42.805,6.029,13.3049,4.60131,2470.763,2023-9-21T03:55:27Z
2023-09-21T01:56:08Z,42.805,6.029,13.3034,4.60126,2470.73,2023-9-21T03:58:30Z
2023-09-21T01:59:11Z,42.805,6.029,13.3041,4.60137,2470.73,2023-9-21T04:01:33Z
2023-09-21T02:02:14Z,42.805,6.029,13.3048,4.60166,2470.693,2023-9-21T04:04:36Z
2023-09-21T02:05:17Z,42.805,6.029,13.3051,4.60164,2470.693,2023-9-21T04:07:39Z
2023-09-21T02:08:20Z,42.805,6.029,13.3049,4.60138,2470.707,2023-9-21T04:10:43Z
2023-09-21T02:11:23Z,42.805,6.029,13.3043,4.60142,2470.707,2023-9-21T04:13:46Z
2023-09-21T02:14:26Z,42.805,6.029,13.3073,4.60147,2470.707,2023-9-21T04:16:49Z
2023-09-21T02:17:29Z,42.805,6.029,13.3041,4.60132,2470.693,2023-9-21T04:19:52Z
2023-09-21T02:20:32Z,42.805,6.029,13.3039,4.60157,2470.73,2023-9-21T04:22:55Z
2023-09-21T02:23:36Z,42.805,6.029,13.3043,4.60169,2470.73,2023-9-21T04:25:58Z
2023-09-21T02:26:39Z,42.805,6.029,13.3058,4.60165,2470.717,2023-9-21T04:29:01Z
2023-09-21T02:29:42Z,42.805,6.029,13.3037,4.60154,2470.693,2023-9-21T04:32:04Z
2023-09-21T02:32:45Z,42.805,6.029,13.3040,4.60157,2470.693,2023-9-21T04:35:07Z
2023-09-21T02:35:48Z,42.805,6.029,13.3033,4.60141,2470.67,2023-9-21T04:38:10Z
2023-09-21T02:38:51Z,42.805,6.029,13.3051,4.60132,2470.717,2023-9-21T04:41:13Z
2023-09-21T02:41:54Z,42.805,6.029,13.3051,4.60125,2470.707,2023-9-21T04:44:16Z
2023-09-21T02:44:57Z,42.805,6.029,13.3047,4.60138,2470.693,2023-9-21T04:47:20Z
2023-09-21T02:48:00Z,42.805,6.029,13.3032,4.60142,2470.707,2023-9-21T04:50:23Z
2023-09-21T02:51:03Z,42.805,6.029,13.3039,4.60141,2470.717,2023-9-21T04:53:26Z
2023-09-21T02:54:06Z,42.805,6.029,13.3038,4.60169,2470.67,2023-9-21T04:56:29Z
2023-09-21T02:57:09Z,42.805,6.029,13.3034,4.60160,2470.684,2023-9-21T04:59:32Z
2023-09-21T03:00:12Z,42.805,6.029,13.3058,4.60192,2470.693,2023-9-21T05:02:35Z
2023-09-21T03:03:16Z,42.805,6.029,13.3051,4.60164,2470.693,2023-9-21T05:05:38Z
2023-09-21T03:06:19Z,42.805,6.029,13.3046,4.60155,2470.693,2023-9-21T05:08:41Z
2023-09-21T03:09:22Z,42.805,6.029,13.3038,4.60164,2470.693,2023-9-21T05:11:44Z
2023-09-21T03:12:25Z,42.805,6.029,13.3039,4.60157,2470.693,2023-9-21T05:14:47Z
2023-09-21T03:15:28Z,42.805,6.029,13.3057,4.60137,2470.693,2023-9-21T05:17:50Z
2023-09-21T03:18:31Z,42.805,6.029,13.3058,4.60115,2470.67,2023-9-21T05:20:53Z
2023-09-21T03:21:34Z,42.805,6.029,13.3048,4.60149,2470.684,2023-9-21T05:23:56Z
2023-09-21T03:24:37Z,42.805,6.029,13.3047,4.60196,2470.707,2023-9-21T05:27:00Z
2023-09-21T03:27:40Z,42.805,6.029,13.3054,4.60143,2470.693,2023-9-21T05:30:03Z
2023-09-21T03:30:43Z,42.805,6.029,13.3046,4.60173,2470.73,2023-9-21T05:33:06Z
2023-09-21T03:33:46Z,42.805,6.029,13.3063,4.60180,2470.707,2023-9-21T05:36:09Z
2023-09-21T03:36:49Z,42.805,6.029,13.3060,4.60161,2470.693,2023-9-21T05:39:12Z
2023-09-21T03:39:52Z,42.805,6.029,13.3053,4.60195,2470.661,2023-9-21T05:42:15Z
2023-09-21T03:42:56Z,42.805,6.029,13.3054,4.60140,2470.693,2023-9-21T05:45:18Z
2023-09-21T03:45:59Z,42.805,6.029,13.3054,4.60163,2470.67,2023-9-21T05:48:21Z
2023-09-21T03:49:02Z,42.805,6.029,13.3065,4.60156,2470.693,2023-9-21T05:51:24Z
2023-09-21T03:52:05Z,42.805,6.029,13.3072,4.60155,2470.67,2023-9-21T05:54:27Z
2023-09-21T03:55:08Z,42.805,6.029,13.3053,4.60126,2470.679,2023-9-21T05:57:30Z
2023-09-21T03:58:11Z,42.805,6.029,13.3073,4.60157,2470.693,2023-9-21T06:00:33Z
2023-09-21T04:01:14Z,42.805,6.029,13.3043,4.60158,2470.73,2023-9-21T06:03:36Z
2023-09-21T04:04:17Z,42.805,6.029,13.3048,4.60157,2470.646,2023-9-21T06:06:40Z
2023-09-21T04:07:20Z,42.805,6.029,13.3071,4.60174,2470.707,2023-9-21T06:09:43Z
2023-09-21T04:10:23Z,42.805,6.029,13.3062,4.60139,2470.684,2023-9-21T06:12:46Z
2023-09-21T04:13:26Z,42.805,6.029,13.3065,4.60151,2470.707,2023-9-21T06:15:49Z
2023-09-21T04:16:29Z,42.805,6.029,13.3061,4.60164,2470.67,2023-9-21T06:18:52Z
2023-09-21T04:19:33Z,42.805,6.029,13.3082,4.60138,2470.67,2023-9-21T06:21:55Z
2023-09-21T04:22:36Z,42.805,6.029,13.3069,4.60189,2470.707,2023-9-21T06:24:58Z
2023-09-21T04:25:39Z,42.805,6.029,13.3056,4.60170,2470.67,2023-9-21T06:28:01Z
2023-09-21T04:28:42Z,42.805,6.029,13.3066,4.60157,2470.684,2023-9-21T06:31:04Z
2023-09-21T04:31:45Z,42.805,6.029,13.3047,4.60166,2470.656,2023-9-21T06:34:07Z
2023-09-21T04:34:48Z,42.805,6.029,13.3057,4.60193,2470.67,2023-9-21T06:37:10Z
2023-09-21T04:37:51Z,42.805,6.029,13.3076,4.60207,2470.637,2023-9-21T06:40:13Z
2023-09-21T04:40:54Z,42.805,6.029,13.3054,4.60160,2470.661,2023-9-21T06:43:17Z
2023-09-21T04:43:57Z,42.805,6.029,13.3049,4.60192,2470.707,2023-9-21T06:46:20Z
2023-09-21T04:47:00Z,42.805,6.029,13.3070,4.60166,2470.707,2023-9-21T06:49:23Z
2023-09-21T04:50:03Z,42.805,6.029,13.3065,4.60173,2470.707,2023-9-21T06:52:26Z
2023-09-21T04:53:06Z,42.805,6.029,13.3047,4.60157,2470.693,2023-9-21T06:55:29Z
2023-09-21T04:56:09Z,42.805,6.029,13.3046,4.60176,2470.684,2023-9-21T06:58:32Z
2023-09-21T04:59:13Z,42.805,6.029,13.3066,4.60178,2470.661,2023-9-21T07:01:35Z
2023-09-21T05:02:16Z,42.805,6.029,13.3059,4.60191,2470.693,2023-9-21T07:04:38Z
2023-09-21T05:05:19Z,42.805,6.029,13.3058,4.60186,2470.684,2023-9-21T07:07:41Z
2023-09-21T05:08:22Z,42.805,6.029,13.3054,4.60180,2470.67,2023-9-21T07:10:44Z
2023-09-21T05:11:25Z,42.805,6.029,13.3063,4.60162,2470.67,2023-9-21T07:13:47Z
2023-09-21T05:14:28Z,42.805,6.029,13.3058,4.60184,2470.67,2023-9-21T07:16:50Z
2023-09-21T05:17:31Z,42.805,6.029,13.3083,4.60193,2470.693,2023-9-21T07:19:54Z
2023-09-21T05:20:34Z,42.805,6.029,13.3079,4.60157,2470.684,2023-9-21T07:22:57Z
2023-09-21T05:23:37Z,42.805,6.029,13.3069,4.60150,2470.684,2023-9-21T07:26:00Z
2023-09-21T05:26:40Z,42.805,6.029,13.3063,4.60157,2470.684,2023-9-21T07:29:03Z
2023-09-21T05:29:43Z,42.805,6.029,13.3060,4.60128,2470.684,2023-9-21T07:32:06Z
2023-09-21T05:32:46Z,42.805,6.029,13.3058,4.60140,2470.656,2023-9-21T07:35:09Z
2023-09-21T05:35:50Z,42.805,6.029,13.3040,4.60112,2470.707,2023-9-21T07:38:12Z
2023-09-21T05:38:53Z,42.805,6.029,13.3036,4.60097,2470.693,2023-9-21T07:41:15Z
2023-09-21T05:41:56Z,42.805,6.029,13.3041,4.60110,2470.707,2023-9-21T07:44:18Z
2023-09-21T05:44:59Z,42.805,6.029,13.3036,4.60099,2470.67,2023-9-21T07:47:21Z
2023-09-21T05:48:02Z,42.805,6.029,13.3031,4.60099,2470.67,2023-9-21T07:50:24Z
2023-09-21T05:51:05Z,42.805,6.029,13.3041,4.60124,2470.707,2023-9-21T07:53:27Z
2023-09-21T05:54:08Z,42.805,6.029,13.3054,4.60098,2470.67,2023-9-21T07:56:30Z
2023-09-21T05:57:11Z,42.805,6.029,13.3034,4.60111,2470.693,2023-9-21T07:59:34Z
2023-09-21T06:00:14Z,42.805,6.029,13.3053,4.60138,2470.67,2023-9-21T08:02:37Z
2023-09-21T06:03:17Z,42.805,6.029,13.3059,4.60113,2470.703,2023-9-21T08:05:40Z
2023-09-21T06:06:20Z,42.805,6.029,13.3065,4.60131,2470.693,2023-9-21T08:08:43Z
2023-09-21T06:09:23Z,42.805,6.029,13.3064,4.60136,2470.684,2023-9-21T08:11:46Z
2023-09-21T06:12:26Z,42.805,6.029,13.3058,4.60109,2470.707,2023-9-21T08:14:49Z
2023-09-21T06:15:30Z,42.805,6.029,13.3041,4.60176,2470.67,2023-9-21T08:17:52Z
2023-09-21T06:18:33Z,42.805,6.029,13.3055,4.60112,2470.684,2023-9-21T08:20:55Z
2023-09-21T06:21:36Z,42.805,6.029,13.3038,4.60106,2470.693,2023-9-21T08:23:58Z
2023-09-21T06:24:39Z,42.805,6.029,13.3028,4.60101,2470.693,2023-9-21T08:27:01Z
2023-09-21T06:27:42Z,42.805,6.029,13.3029,4.60094,2470.693,2023-9-21T08:30:04Z
2023-09-21T06:30:43Z,42.805,6.029,13.3031,4.60090,2470.717,2023-9-21T08:33:06Z
2023-09-21T06:33:46Z,42.805,6.029,13.3031,4.60097,2470.67,2023-9-21T08:36:09Z
2023-09-21T06:36:49Z,42.805,6.029,13.3025,4.60094,2470.693,2023-9-21T08:39:12Z
2023-09-21T06:39:52Z,42.805,6.029,13.3026,4.60092,2470.693,2023-9-21T08:42:15Z
2023-09-21T06:42:56Z,42.805,6.029,13.3026,4.60099,2470.693,2023-9-21T08:45:18Z
2023-09-21T06:45:59Z,42.805,6.029,13.3024,4.60094,2470.67,2023-9-21T08:48:21Z
2023-09-21T06:49:02Z,42.805,6.029,13.3026,4.60098,2470.717,2023-9-21T08:51:24Z
2023-09-21T06:52:05Z,42.805,6.029,13.3024,4.60092,2470.684,2023-9-21T08:54:27Z
2023-09-21T06:55:08Z,42.805,6.029,13.3029,4.60099,2470.703,2023-9-21T08:57:30Z
2023-09-21T06:58:11Z,42.805,6.029,13.3023,4.60095,2470.67,2023-9-21T09:00:33Z
2023-09-21T07:01:14Z,42.805,6.029,13.3027,4.60102,2470.693,2023-9-21T09:03:37Z
2023-09-21T07:04:17Z,42.805,6.029,13.3027,4.60098,2470.693,2023-9-21T09:06:40Z
2023-09-21T07:07:20Z,42.805,6.029,13.3029,4.60091,2470.717,2023-9-21T09:09:43Z
2023-09-21T07:10:23Z,42.805,6.029,13.3042,4.60092,2470.73,2023-9-21T09:12:46Z
2023-09-21T07:13:26Z,42.805,6.029,13.3024,4.60093,2470.693,2023-9-21T09:15:49Z
2023-09-21T07:16:29Z,42.805,6.029,13.3031,4.60095,2470.73,2023-9-21T09:18:52Z
2023-09-21T07:19:33Z,42.805,6.029,13.3036,4.60094,2470.693,2023-9-21T09:21:55Z
2023-09-21T07:22:36Z,42.805,6.029,13.3036,4.60096,2470.73,2023-9-21T09:24:58Z
2023-09-21T07:25:39Z,42.805,6.029,13.3041,4.60100,2470.73,2023-9-21T09:28:01Z
2023-09-21T07:28:42Z,42.805,6.029,13.3033,4.60111,2470.67,2023-9-21T09:31:04Z
2023-09-21T07:31:45Z,42.805,6.029,13.3034,4.60123,2470.73,2023-9-21T09:34:07Z
2023-09-21T07:34:48Z,42.805,6.029,13.3035,4.60092,2470.707,2023-9-21T09:37:10Z
2023-09-21T07:37:51Z,42.805,6.029,13.3040,4.60102,2470.763,2023-9-21T09:40:13Z
2023-09-21T07:40:54Z,42.805,6.029,13.3031,4.60091,2470.717,2023-9-21T09:43:17Z
2023-09-21T07:43:57Z,42.805,6.029,13.3059,4.60117,2470.754,2023-9-21T09:46:20Z
2023-09-21T07:47:00Z,42.805,6.029,13.3044,4.60116,2470.717,2023-9-21T09:49:23Z
2023-09-21T07:50:03Z,42.805,6.029,13.3050,4.60119,2470.74,2023-9-21T09:52:26Z
2023-09-21T07:53:06Z,42.805,6.029,13.3050,4.60113,2470.73,2023-9-21T09:55:29Z
2023-09-21T07:56:10Z,42.805,6.029,13.3052,4.60129,2470.74,2023-9-21T09:58:32Z
2023-09-21T07:59:13Z,42.805,6.029,13.3047,4.60104,2470.754,2023-9-21T10:01:35Z
2023-09-21T08:02:16Z,42.805,6.029,13.3039,4.60098,2470.777,2023-9-21T10:04:38Z
2023-09-21T08:05:19Z,42.805,6.029,13.3053,4.60117,2470.74,2023-9-21T10:07:41Z
2023-09-21T08:08:22Z,42.805,6.029,13.3043,4.60109,2470.74,2023-9-21T10:10:44Z
2023-09-21T08:11:25Z,42.805,6.029,13.3041,4.60101,2470.777,2023-9-21T10:13:47Z
2023-09-21T08:14:28Z,42.805,6.029,13.3068,4.60115,2470.777,2023-9-21T10:16:50Z
2023-09-21T08:17:31Z,42.805,6.029,13.3061,4.60119,2470.763,2023-9-21T10:19:54Z
2023-09-21T08:20:34Z,42.805,6.029,13.3043,4.60119,2470.754,2023-9-21T10:22:57Z
2023-09-21T08:23:37Z,42.805,6.029,13.3032,4.60094,2470.777,2023-9-21T10:26:00Z
2023-09-21T08:26:40Z,42.805,6.029,13.3052,4.60105,2470.777,2023-9-21T10:29:03Z
2023-09-21T08:29:43Z,42.805,6.029,13.3055,4.60106,2470.777,2023-9-21T10:32:06Z
2023-09-21T08:32:47Z,42.805,6.029,13.3051,4.60128,2470.777,2023-9-21T10:35:09Z
2023-09-21T08:35:50Z,42.805,6.029,13.3056,4.60113,2470.763,2023-9-21T10:38:12Z
2023-09-21T08:38:53Z,42.805,6.029,13.3052,4.60117,2470.754,2023-9-21T10:41:15Z
2023-09-21T08:41:56Z,42.805,6.029,13.3058,4.60117,2470.777,2023-9-21T10:44:18Z
2023-09-21T08:44:59Z,42.805,6.029,13.3059,4.60135,2470.787,2023-9-21T10:47:21Z
2023-09-21T08:48:02Z,42.805,6.029,13.3046,4.60137,2470.8,2023-9-21T10:50:25Z
2023-09-21T08:51:05Z,42.805,6.029,13.3056,4.60122,2470.8,2023-9-21T10:53:28Z
2023-09-21T08:54:08Z,42.805,6.029,13.3067,4.60125,2470.787,2023-9-21T10:56:31Z
2023-09-21T08:57:11Z,42.805,6.029,13.3059,4.60122,2470.787,2023-9-21T10:59:34Z
2023-09-21T09:00:14Z,42.805,6.029,13.3043,4.60119,2470.8,2023-9-21T11:02:37Z
2023-09-21T09:03:18Z,42.805,6.029,13.3043,4.60101,2470.8,2023-9-21T11:05:40Z
2023-09-21T09:06:21Z,42.805,6.029,13.3029,4.60108,2470.8,2023-9-21T11:08:43Z
2023-09-21T09:09:24Z,42.805,6.029,13.3030,4.60095,2470.787,2023-9-21T11:11:46Z
2023-09-21T09:12:27Z,42.805,6.029,13.3042,4.60129,2470.787,2023-9-21T11:14:49Z
2023-09-21T09:15:30Z,42.805,6.029,13.3048,4.60135,2470.787,2023-9-21T11:17:52Z
2023-09-21T09:18:33Z,42.805,6.029,13.3043,4.60120,2470.833,2023-9-21T11:20:55Z
2023-09-21T09:21:36Z,42.805,6.029,13.3053,4.60106,2470.787,2023-9-21T11:23:58Z
2023-09-21T09:24:39Z,42.805,6.029,13.3051,4.60116,2470.787,2023-9-21T11:27:02Z
2023-09-21T09:27:42Z,42.805,6.029,13.3061,4.60120,2470.824,2023-9-21T11:30:05Z
2023-09-21T09:30:45Z,42.805,6.029,13.3058,4.60130,2470.81,2023-9-21T11:33:08Z
2023-09-21T09:33:48Z,42.805,6.029,13.3063,4.60127,2470.824,2023-9-21T11:36:11Z
2023-09-21T09:36:51Z,42.805,6.029,13.3049,4.60143,2470.81,2023-9-21T11:39:14Z
2023-09-21T09:39:55Z,42.805,6.029,13.3042,4.60157,2470.81,2023-9-21T11:42:17Z
2023-09-21T09:42:58Z,42.805,6.029,13.3050,4.60158,2470.824,2023-9-21T11:45:20Z
2023-09-21T09:46:01Z,42.805,6.029,13.3050,4.60163,2470.824,2023-9-21T11:48:23Z
2023-09-21T09:49:04Z,42.805,6.029,13.3058,4.60172,2470.824,2023-9-21T11:51:26Z
2023-09-21T09:52:07Z,42.805,6.029,13.3051,4.60137,2470.824,2023-9-21T11:54:29Z
2023-09-21T09:55:10Z,42.805,6.029,13.3063,4.60135,2470.8,2023-9-21T11:57:32Z
2023-09-21T09:58:13Z,42.805,6.029,13.3059,4.60117,2470.81,2023-9-21T12:00:36Z
2023-09-21T10:01:16Z,42.805,6.029,13.3054,4.60137,2470.81,2023-9-21T12:03:39Z
2023-09-21T10:04:19Z,42.805,6.029,13.3042,4.60125,2470.824,2023-9-21T12:06:42Z
2023-09-21T10:07:22Z,42.805,6.029,13.3043,4.60129,2470.787,2023-9-21T12:09:45Z
2023-09-21T10:10:25Z,42.805,6.029,13.3065,4.60146,2470.787,2023-9-21T12:12:48Z
2023-09-21T10:13:28Z,42.805,6.029,13.3048,4.60156,2470.81,2023-9-21T12:15:51Z
2023-09-21T10:16:32Z,42.805,6.029,13.3047,4.60139,2470.81,2023-9-21T12:18:54Z
2023-09-21T10:19:35Z,42.805,6.029,13.3058,4.60157,2470.8,2023-9-21T12:21:57Z
2023-09-21T10:22:38Z,42.805,6.029,13.3043,4.60150,2470.777,2023-9-21T12:25:00Z
2023-09-21T10:25:41Z,42.805,6.029,13.3043,4.60158,2470.81,2023-9-21T12:28:03Z
2023-09-21T10:28:44Z,42.805,6.029,13.3036,4.60139,2470.787,2023-9-21T12:31:06Z
2023-09-21T10:31:47Z,42.805,6.029,13.3040,4.60162,2470.81,2023-9-21T12:34:09Z
2023-09-21T10:34:50Z,42.805,6.029,13.3042,4.60168,2470.824,2023-9-21T12:37:13Z
2023-09-21T10:37:53Z,42.805,6.029,13.3039,4.60150,2470.81,2023-9-21T12:40:16Z
2023-09-21T10:40:56Z,42.805,6.029,13.3035,4.60147,2470.833,2023-9-21T12:43:19Z
2023-09-21T10:43:59Z,42.805,6.029,13.3039,4.60134,2470.833,2023-9-21T12:46:22Z
2023-09-21T10:47:02Z,42.805,6.029,13.3039,4.60137,2470.824,2023-9-21T12:49:25Z
2023-09-21T10:50:05Z,42.805,6.029,13.3039,4.60142,2470.81,2023-9-21T12:52:28Z
2023-09-21T10:53:09Z,42.805,6.029,13.3042,4.60157,2470.787,2023-9-21T12:55:31Z
2023-09-21T10:56:12Z,42.805,6.029,13.3049,4.60132,2470.824,2023-9-21T12:58:34Z
2023-09-21T10:59:15Z,42.805,6.029,13.3048,4.60155,2470.81,2023-9-21T13:01:37Z
2023-09-21T11:02:18Z,42.805,6.029,13.3041,4.60132,2470.824,2023-9-21T13:04:40Z
2023-09-21T11:05:21Z,42.805,6.029,13.3037,4.60141,2470.81,2023-9-21T13:07:43Z
2023-09-21T11:08:24Z,42.805,6.029,13.3046,4.60159,2470.81,2023-9-21T13:10:46Z
2023-09-21T11:11:27Z,42.805,6.029,13.3035,4.60137,2470.824,2023-9-21T13:13:50Z
2023-09-21T11:14:30Z,42.805,6.029,13.3058,4.60160,2470.8,2023-9-21T13:16:53Z
2023-09-21T11:17:33Z,42.805,6.029,13.3036,4.60145,2470.8,2023-9-21T13:19:56Z
2023-09-21T11:20:36Z,42.805,6.029,13.3058,4.60158,2470.81,2023-9-21T13:22:59Z
2023-09-21T11:23:39Z,42.805,6.029,13.3055,4.60157,2470.787,2023-9-21T13:26:02Z
2023-09-21T11:26:42Z,42.805,6.029,13.3044,4.60158,2470.847,2023-9-21T13:29:05Z
2023-09-21T11:29:46Z,42.805,6.029,13.3041,4.60156,2470.81,2023-9-21T13:32:08Z
2023-09-21T11:32:49Z,42.805,6.029,13.3039,4.60164,2470.824,2023-9-21T13:35:11Z
2023-09-21T11:35:52Z,42.805,6.029,13.3051,4.60155,2470.833,2023-9-21T13:38:14Z
2023-09-21T11:38:55Z,42.805,6.029,13.3046,4.60168,2470.787,2023-9-21T13:41:17Z
2023-09-21T11:41:58Z,42.805,6.029,13.3043,4.60160,2470.824,2023-9-21T13:44:20Z
2023-09-21T11:45:01Z,42.805,6.029,13.3051,4.60180,2470.787,2023-9-21T13:47:23Z
2023-09-21T11:48:04Z,42.805,6.029,13.3038,4.60163,2470.787,2023-9-21T13:50:27Z
2023-09-21T11:51:07Z,42.805,6.029,13.3048,4.60168,2470.787,2023-9-21T13:53:30Z
2023-09-21T11:54:10Z,42.805,6.029,13.3041,4.60150,2470.81,2023-9-21T13:56:33Z
2023-09-21T11:57:13Z,42.805,6.029,13.3042,4.60139,2470.824,2023-9-21T13:59:36Z
2023-09-21T12:00:16Z,42.805,6.029,13.3041,4.60145,2470.787,2023-9-21T14:02:39Z
2023-09-21T12:03:20Z,42.805,6.029,13.3047,4.60173,2470.81,2023-9-21T14:05:42Z
2023-09-21T12:06:23Z,42.805,6.029,13.3047,4.60147,2470.787,2023-9-21T14:08:45Z
2023-09-21T12:09:26Z,42.805,6.029,13.3040,4.60144,2470.777,2023-9-21T14:11:48Z
2023-09-21T12:12:29Z,42.805,6.029,13.3037,4.60147,2470.754,2023-9-21T14:14:51Z
2023-09-21T12:15:32Z,42.805,6.029,13.3051,4.60147,2470.8,2023-9-21T14:17:54Z
2023-09-21T12:18:35Z,42.805,6.029,13.3045,4.60140,2470.787,2023-9-21T14:20:57Z
2023-09-21T12:21:38Z,42.805,6.029,13.3036,4.60155,2470.81,2023-9-21T14:24:01Z
2023-09-21T12:24:41Z,42.805,6.029,13.3037,4.60147,2470.81,2023-9-21T14:27:04Z
2023-09-21T12:27:44Z,42.805,6.029,13.3046,4.60141,2470.763,2023-9-21T14:30:07Z
2023-09-21T12:30:49Z,42.805,6.029,13.3037,4.60167,2470.8,2023-9-21T14:33:11Z
2023-09-21T12:33:52Z,42.805,6.029,13.3036,4.60156,2470.787,2023-9-21T14:36:14Z
2023-09-21T12:36:55Z,42.805,6.029,13.3045,4.60156,2470.777,2023-9-21T14:39:17Z
2023-09-21T12:39:58Z,42.805,6.029,13.3033,4.60131,2470.763,2023-9-21T14:42:20Z
2023-09-21T12:43:01Z,42.805,6.029,13.3033,4.60131,2470.74,2023-9-21T14:45:24Z
2023-09-21T12:46:04Z,42.805,6.029,13.3041,4.60145,2470.8,2023-9-21T14:48:27Z
2023-09-21T12:49:07Z,42.805,6.029,13.3034,4.60132,2470.763,2023-9-21T14:51:30Z
2023-09-21T12:52:10Z,42.805,6.029,13.3036,4.60137,2470.763,2023-9-21T14:54:33Z
2023-09-21T12:55:13Z,42.805,6.029,13.3034,4.60134,2470.8,2023-9-21T14:57:36Z
2023-09-21T12:58:16Z,42.805,6.029,13.3036,4.60129,2470.81,2023-9-21T15:00:39Z
2023-09-21T13:01:20Z,42.805,6.029,13.3031,4.60120,2470.777,2023-9-21T15:03:42Z
2023-09-21T13:04:23Z,42.805,6.029,13.3036,4.60133,2470.754,2023-9-21T15:06:45Z
2023-09-21T13:07:26Z,42.805,6.029,13.3036,4.60152,2470.74,2023-9-21T15:09:48Z
2023-09-21T13:10:29Z,42.805,6.029,13.3045,4.60164,2470.763,2023-9-21T15:12:51Z
2023-09-21T13:13:32Z,42.805,6.029,13.3039,4.60132,2470.74,2023-9-21T15:15:54Z
2023-09-21T13:16:35Z,42.805,6.029,13.3047,4.60160,2470.8,2023-9-21T15:18:58Z
2023-09-21T13:19:38Z,42.805,6.029,13.3037,4.60157,2470.8,2023-9-21T15:22:01Z
2023-09-21T13:22:41Z,42.805,6.029,13.3048,4.60157,2470.763,2023-9-21T15:25:04Z
2023-09-21T13:25:44Z,42.805,6.029,13.3042,4.60172,2470.74,2023-9-21T15:28:07Z
2023-09-21T13:28:47Z,42.805,6.029,13.3041,4.60162,2470.777,2023-9-21T15:31:10Z
2023-09-21T13:31:50Z,42.805,6.029,13.3054,4.60143,2470.717,2023-9-21T15:34:13Z
2023-09-21T13:34:54Z,42.805,6.029,13.3055,4.60148,2470.754,2023-9-21T15:37:16Z
2023-09-21T13:37:57Z,42.805,6.029,13.3039,4.60136,2470.777,2023-9-21T15:40:19Z
2023-09-21T13:41:00Z,42.805,6.029,13.3035,4.60142,2470.763,2023-9-21T15:43:22Z
2023-09-21T13:44:03Z,42.805,6.029,13.3039,4.60160,2470.754,2023-9-21T15:46:25Z
2023-09-21T13:47:06Z,42.805,6.029,13.3034,4.60160,2470.74,2023-9-21T15:49:28Z
2023-09-21T13:50:09Z,42.805,6.029,13.3040,4.60146,2470.74,2023-9-21T15:52:31Z
2023-09-21T13:53:12Z,42.805,6.029,13.3059,4.60139,2470.763,2023-9-21T15:55:35Z
2023-09-21T13:56:15Z,42.805,6.029,13.3038,4.60151,2470.74,2023-9-21T15:58:38Z
2023-09-21T13:59:18Z,42.805,6.029,13.3046,4.60160,2470.717,2023-9-21T16:01:41Z
2023-09-21T14:02:21Z,42.805,6.029,13.3044,4.60160,2470.754,2023-9-21T16:04:44Z
2023-09-21T14:05:24Z,42.805,6.029,13.3056,4.60164,2470.73,2023-9-21T16:07:47Z
2023-09-21T14:08:28Z,42.805,6.029,13.3035,4.60135,2470.754,2023-9-21T16:10:50Z
2023-09-21T14:11:31Z,42.805,6.029,13.3043,4.60136,2470.73,2023-9-21T16:13:53Z
2023-09-21T14:14:34Z,42.805,6.029,13.3050,4.60145,2470.754,2023-9-21T16:16:56Z
2023-09-21T14:17:37Z,42.805,6.029,13.3046,4.60141,2470.74,2023-9-21T16:19:59Z
2023-09-21T14:20:40Z,42.805,6.029,13.3038,4.60172,2470.717,2023-9-21T16:23:02Z
2023-09-21T14:23:43Z,42.805,6.029,13.3051,4.60140,2470.754,2023-9-21T16:26:05Z
2023-09-21T14:26:46Z,42.805,6.029,13.3047,4.60137,2470.717,2023-9-21T16:29:09Z
2023-09-21T14:29:49Z,42.805,6.029,13.3037,4.60137,2470.754,2023-9-21T16:32:12Z
2023-09-21T14:32:52Z,42.805,6.029,13.3040,4.60122,2470.74,2023-9-21T16:35:15Z
2023-09-21T14:35:55Z,42.805,6.029,13.3053,4.60151,2470.717,2023-9-21T16:38:18Z
2023-09-21T14:38:58Z,42.805,6.029,13.3069,4.60142,2470.777,2023-9-21T16:41:21Z
2023-09-21T14:42:02Z,42.805,6.029,13.3046,4.60144,2470.754,2023-9-21T16:44:24Z
2023-09-21T14:45:05Z,42.805,6.029,13.3051,4.60150,2470.754,2023-9-21T16:47:27Z
2023-09-21T14:48:08Z,42.805,6.029,13.3050,4.60170,2470.73,2023-9-21T16:50:30Z
2023-09-21T14:51:11Z,42.805,6.029,13.3040,4.60147,2470.717,2023-9-21T16:53:33Z
2023-09-21T14:54:14Z,42.805,6.029,13.3041,4.60134,2470.717,2023-9-21T16:56:36Z
2023-09-21T14:57:17Z,42.805,6.029,13.3046,4.60141,2470.717,2023-9-21T16:59:40Z
2023-09-21T15:00:20Z,42.805,6.029,13.3041,4.60148,2470.754,2023-9-21T17:02:43Z
2023-09-21T15:03:23Z,42.805,6.029,13.3051,4.60144,2470.717,2023-9-21T17:05:46Z
2023-09-21T15:06:26Z,42.805,6.029,13.3055,4.60141,2470.717,2023-9-21T17:08:49Z
2023-09-21T15:09:29Z,42.805,6.029,13.3052,4.60173,2470.73,2023-9-21T17:11:52Z
2023-09-21T15:12:32Z,42.805,6.029,13.3045,4.60134,2470.73,2023-9-21T17:14:55Z